Time,TemperatureF,DewpointF,PressureIn,WindDirection,WindDirectionDegrees,WindSpeedMPH,WindSpeedGustMPH,Humidity,HourlyPrecipIn,Conditions,Clouds,dailyrainin,SoftwareType,DateUTC
2013-03-16 00:00:00,35.1,10.2,0.00,ENE,71,2.7,3.6,35,0.00,,,0.00,VWS V13.01,2013-03-16 04:00:00,
2013-03-16 00:02:00,34.9,11.3,0.00,NE,39,3.1,4.0,37,0.00,,,0.00,VWS V13.01,2013-03-16 04:02:00,
2013-03-16 00:07:00,34.7,12.9,0.00,NE,34,3.1,3.1,40,0.00,,,0.00,VWS V13.01,2013-03-16 04:07:00,
2013-03-16 00:12:00,34.5,12.7,0.00,North,0,0.0,2.2,40,0.00,,,0.00,VWS V13.01,2013-03-16 04:12:00,
2013-03-16 00:17:00,34.5,12.7,0.00,ESE,109,4.5,4.5,40,0.00,,,0.00,VWS V13.01,2013-03-16 04:17:00,
2013-03-16 00:22:00,34.5,13.3,0.00,WNW,299,3.1,3.1,41,0.00,,,0.00,VWS V13.01,2013-03-16 04:22:00,
2013-03-16 00:27:00,34.5,12.7,0.00,WNW,295,0.0,4.0,40,0.00,,,0.00,VWS V13.01,2013-03-16 04:27:00,
2013-03-16 00:33:00,34.3,12.5,0.00,NNW,332,8.3,8.3,40,0.00,,,0.00,VWS V13.01,2013-03-16 04:33:00,
2013-03-16 00:38:00,34.3,12.5,0.00,West,266,3.6,3.6,40,0.00,,,0.00,VWS V13.01,2013-03-16 04:38:00,
2013-03-16 00:43:00,34.3,13.1,0.00,West,266,5.4,5.4,41,0.00,,,0.00,VWS V13.01,2013-03-16 04:43:00,
2013-03-16 00:48:00,34.3,13.1,0.00,WNW,288,2.7,5.4,41,0.00,,,0.00,VWS V13.01,2013-03-16 04:48:00,
2013-03-16 00:53:00,34.3,13.1,0.00,West,262,0.0,3.6,41,0.00,,,0.00,VWS V13.01,2013-03-16 04:53:00,
2013-03-16 00:58:00,34.2,12.9,0.00,West,261,0.0,2.2,41,0.00,,,0.00,VWS V13.01,2013-03-16 04:58:00,
2013-03-16 01:03:00,34.0,12.8,0.00,West,261,0.0,0.0,41,0.00,,,0.00,VWS V13.01,2013-03-16 05:03:00,
2013-03-16 01:08:00,34.0,12.8,0.00,NW,321,2.2,4.0,41,0.00,,,0.00,VWS V13.01,2013-03-16 05:08:00,
2013-03-16 01:13:00,34.0,12.2,0.00,WSW,248,0.0,0.0,40,0.00,,,0.00,VWS V13.01,2013-03-16 05:13:00,
2013-03-16 01:18:00,34.0,12.2,0.00,North,0,0.0,0.0,40,0.00,,,0.00,VWS V13.01,2013-03-16 05:18:00,
2013-03-16 01:23:00,34.0,12.2,0.00,NW,320,5.4,5.4,40,0.00,,,0.00,VWS V13.01,2013-03-16 05:23:00,
2013-03-16 01:28:00,34.2,11.2,0.00,NNE,33,0.0,2.7,38,0.00,,,0.00,VWS V13.01,2013-03-16 05:28:00,
2013-03-16 01:33:00,34.2,10.0,0.00,SSW,197,0.0,0.0,36,0.00,,,0.00,VWS V13.01,2013-03-16 05:33:00,
2013-03-16 01:38:00,34.2,7.4,0.00,North,357,3.6,4.0,32,0.00,,,0.00,VWS V13.01,2013-03-16 05:38:00,
2013-03-16 01:43:00,34.3,6.1,0.00,West,265,9.6,9.6,30,0.00,,,0.00,VWS V13.01,2013-03-16 05:43:00,
2013-03-16 01:49:00,34.3,3.8,0.00,West,268,5.8,5.8,27,0.00,,,0.00,VWS V13.01,2013-03-16 05:49:00,
2013-03-16 01:54:00,34.5,2.3,0.00,WNW,291,5.8,11.0,25,0.00,,,0.00,VWS V13.01,2013-03-16 05:54:00,
2013-03-16 01:59:00,34.5,2.3,0.00,West,276,3.1,3.1,25,0.00,,,0.00,VWS V13.01,2013-03-16 05:59:00,
2013-03-16 02:04:00,34.5,2.3,0.00,SW,236,5.8,8.1,25,0.00,,,0.00,VWS V13.01,2013-03-16 06:04:00,
2013-03-16 02:09:00,34.3,-0.6,0.00,West,267,6.3,8.1,22,0.00,,,0.00,VWS V13.01,2013-03-16 06:09:00,
2013-03-16 02:14:00,34.2,-0.7,0.00,SW,224,4.0,6.3,22,0.00,,,0.00,VWS V13.01,2013-03-16 06:14:00,
2013-03-16 02:19:00,34.0,-0.9,0.00,West,267,10.1,12.8,22,0.00,,,0.00,VWS V13.01,2013-03-16 06:19:00,
2013-03-16 02:24:00,34.0,-0.9,0.00,WSW,256,8.1,8.1,22,0.00,,,0.00,VWS V13.01,2013-03-16 06:24:00,
2013-03-16 02:29:00,34.0,-0.9,0.00,West,259,5.8,8.3,22,0.00,,,0.00,VWS V13.01,2013-03-16 06:29:00,
2013-03-16 02:34:00,33.8,-1.0,0.00,WNW,293,6.3,11.4,22,0.00,,,0.00,VWS V13.01,2013-03-16 06:34:00,
2013-03-16 02:39:00,33.6,-0.2,0.00,West,262,8.7,10.5,23,0.00,,,0.00,VWS V13.01,2013-03-16 06:39:00,
2013-03-16 02:44:00,33.6,-0.2,0.00,WNW,295,6.3,13.2,23,0.00,,,0.00,VWS V13.01,2013-03-16 06:44:00,
2013-03-16 02:49:00,33.6,-0.2,0.00,WSW,251,8.1,8.7,23,0.00,,,0.00,VWS V13.01,2013-03-16 06:49:00,
2013-03-16 02:54:00,33.4,-0.4,0.00,WSW,252,6.3,11.0,23,0.00,,,0.00,VWS V13.01,2013-03-16 06:54:00,
2013-03-16 02:59:00,33.1,-0.7,0.00,WSW,248,6.3,10.5,23,0.00,,,0.00,VWS V13.01,2013-03-16 06:59:00,
2013-03-16 03:04:00,32.9,-0.8,0.00,NW,316,17.4,17.4,23,0.00,,,0.00,VWS V13.01,2013-03-16 07:04:00,
2013-03-16 03:09:00,33.1,-0.7,0.00,West,274,14.1,14.1,23,0.00,,,0.00,VWS V13.01,2013-03-16 07:09:00,
2013-03-16 03:15:00,33.1,-0.7,0.00,North,357,6.3,6.3,23,0.00,,,0.00,VWS V13.01,2013-03-16 07:15:00,
2013-03-16 03:20:00,32.9,-0.8,0.00,WSW,257,2.7,2.7,23,0.00,,,0.00,VWS V13.01,2013-03-16 07:20:00,
2013-03-16 03:25:00,32.5,-1.1,0.00,West,260,3.1,4.0,23,0.00,,,0.00,VWS V13.01,2013-03-16 07:25:00,
2013-03-16 03:30:00,32.2,-1.4,0.00,North,0,7.6,7.6,23,0.00,,,0.00,VWS V13.01,2013-03-16 07:30:00,
2013-03-16 03:35:00,31.6,2.3,0.00,East,99,0.0,2.2,28,0.00,,,0.00,VWS V13.01,2013-03-16 07:35:00,
2013-03-16 03:40:00,31.1,3.3,0.00,NW,325,4.0,5.4,30,0.00,,,0.00,VWS V13.01,2013-03-16 07:40:00,
2013-03-16 03:45:00,30.7,3.7,0.00,NW,320,2.7,6.3,31,0.00,,,0.00,VWS V13.01,2013-03-16 07:45:00,
2013-03-16 03:50:00,30.4,3.4,0.00,ENE,63,3.6,6.3,31,0.00,,,0.00,VWS V13.01,2013-03-16 07:50:00,
2013-03-16 03:55:00,30.0,3.1,0.00,NW,312,3.6,8.7,31,0.00,,,0.00,VWS V13.01,2013-03-16 07:55:00,
2013-03-16 04:00:00,29.8,2.9,0.00,NE,48,6.3,7.2,31,0.00,,,0.00,VWS V13.01,2013-03-16 08:00:00,
2013-03-16 04:05:00,29.5,2.6,0.00,East,91,0.0,4.0,31,0.00,,,0.00,VWS V13.01,2013-03-16 08:05:00,
2013-03-16 04:10:00,29.5,2.6,0.00,NE,34,3.1,3.1,31,0.00,,,0.00,VWS V13.01,2013-03-16 08:10:00,
2013-03-16 04:15:00,29.3,1.7,0.00,NW,313,4.0,6.3,30,0.00,,,0.00,VWS V13.01,2013-03-16 08:15:00,
2013-03-16 04:20:00,29.1,1.6,0.00,North,9,4.0,4.0,30,0.00,,,0.00,VWS V13.01,2013-03-16 08:20:00,
2013-03-16 04:26:00,29.1,1.6,0.00,SW,225,0.0,2.2,30,0.00,,,0.00,VWS V13.01,2013-03-16 08:26:00,
2013-03-16 04:31:00,28.9,-0.1,0.00,SE,133,4.9,4.9,28,0.00,,,0.00,VWS V13.01,2013-03-16 08:31:00,
2013-03-16 04:36:00,28.9,-0.1,0.00,WNW,296,5.4,6.3,28,0.00,,,0.00,VWS V13.01,2013-03-16 08:36:00,
2013-03-16 04:41:00,28.9,-0.1,0.00,NNE,32,6.3,7.2,28,0.00,,,0.00,VWS V13.01,2013-03-16 08:41:00,
2013-03-16 04:46:00,28.9,-2.5,0.00,SSE,159,3.6,6.3,25,0.00,,,0.00,VWS V13.01,2013-03-16 08:46:00,
2013-03-16 04:51:00,28.9,-2.5,0.00,NW,306,2.7,5.4,25,0.00,,,0.00,VWS V13.01,2013-03-16 08:51:00,
2013-03-16 04:56:00,28.8,-2.6,0.00,NW,307,8.3,8.3,25,0.00,,,0.00,VWS V13.01,2013-03-16 08:56:00,
2013-03-16 05:01:00,28.6,-2.8,0.00,NNW,348,5.8,8.7,25,0.00,,,0.00,VWS V13.01,2013-03-16 09:01:00,
2013-03-16 05:06:00,28.6,-2.8,0.00,West,268,8.3,9.2,25,0.00,,,0.00,VWS V13.01,2013-03-16 09:06:00,
2013-03-16 05:11:00,28.6,-2.8,0.00,SSW,203,5.4,5.4,25,0.00,,,0.00,VWS V13.01,2013-03-16 09:11:00,
2013-03-16 05:16:00,28.4,-2.1,0.00,SSW,201,3.1,3.1,26,0.00,,,0.00,VWS V13.01,2013-03-16 09:16:00,
2013-03-16 05:21:00,28.4,-2.1,0.00,NNE,16,10.1,10.1,26,0.00,,,0.00,VWS V13.01,2013-03-16 09:21:00,
2013-03-16 05:26:00,28.2,-2.2,0.00,ENE,78,3.1,3.1,26,0.00,,,0.00,VWS V13.01,2013-03-16 09:26:00,
2013-03-16 05:31:00,28.0,-2.4,0.00,NW,318,3.1,4.0,26,0.00,,,0.00,VWS V13.01,2013-03-16 09:31:00,
2013-03-16 05:37:00,28.0,-2.4,0.00,East,81,4.0,4.0,26,0.00,,,0.00,VWS V13.01,2013-03-16 09:37:00,
2013-03-16 05:42:00,27.9,-2.6,0.00,NW,326,6.3,6.3,26,0.00,,,0.00,VWS V13.01,2013-03-16 09:42:00,
2013-03-16 05:47:00,27.7,-2.7,0.00,NW,317,5.4,5.4,26,0.00,,,0.00,VWS V13.01,2013-03-16 09:47:00,
2013-03-16 05:52:00,27.7,-2.7,0.00,NE,45,0.0,0.0,26,0.00,,,0.00,VWS V13.01,2013-03-16 09:52:00,
2013-03-16 05:57:00,27.5,-2.9,0.00,East,89,2.2,2.2,26,0.00,,,0.00,VWS V13.01,2013-03-16 09:57:00,
2013-03-16 06:02:00,27.5,-2.9,0.00,NNW,345,0.0,3.1,26,0.00,,,0.00,VWS V13.01,2013-03-16 10:02:00,
2013-03-16 06:07:00,27.3,-3.0,0.00,North,6,2.7,3.6,26,0.00,,,0.00,VWS V13.01,2013-03-16 10:07:00,
2013-03-16 06:12:00,27.1,-3.2,0.00,East,101,2.7,6.3,26,0.00,,,0.00,VWS V13.01,2013-03-16 10:12:00,
2013-03-16 06:17:00,27.1,-3.2,0.00,ENE,61,4.0,8.1,26,0.00,,,0.00,VWS V13.01,2013-03-16 10:17:00,
2013-03-16 06:22:00,27.0,-3.3,0.00,NW,310,3.6,3.6,26,0.00,,,0.00,VWS V13.01,2013-03-16 10:22:00,
2013-03-16 06:27:00,27.0,-3.3,0.00,West,275,2.7,4.0,26,0.00,,,0.00,VWS V13.01,2013-03-16 10:27:00,
2013-03-16 06:33:00,27.0,-3.3,0.00,ENE,70,3.1,4.5,26,0.00,,,0.00,VWS V13.01,2013-03-16 10:33:00,
2013-03-16 06:38:00,26.8,-3.5,0.00,South,179,4.0,4.0,26,0.00,,,0.00,VWS V13.01,2013-03-16 10:38:00,
2013-03-16 06:42:00,26.6,-3.7,0.00,North,3,6.3,6.3,26,0.00,,,0.00,VWS V13.01,2013-03-16 10:42:00,
2013-03-16 06:48:00,26.4,-3.8,0.00,East,87,3.6,4.0,26,0.00,,,0.00,VWS V13.01,2013-03-16 10:48:00,
2013-03-16 06:53:00,26.4,-3.8,0.00,East,84,3.1,5.8,26,0.00,,,0.00,VWS V13.01,2013-03-16 10:53:00,
2013-03-16 06:58:00,26.4,-3.8,0.00,SE,139,2.7,5.4,26,0.00,,,0.00,VWS V13.01,2013-03-16 10:58:00,
2013-03-16 07:03:00,26.4,-3.8,0.00,SE,126,2.2,3.6,26,0.00,,,0.00,VWS V13.01,2013-03-16 11:03:00,
2013-03-16 07:08:00,26.2,-4.0,0.00,North,353,8.1,8.1,26,0.00,,,0.00,VWS V13.01,2013-03-16 11:08:00,
2013-03-16 07:13:00,26.2,-4.0,0.00,NE,35,3.1,5.8,26,0.00,,,0.00,VWS V13.01,2013-03-16 11:13:00,
2013-03-16 07:18:00,26.2,-4.0,0.00,SSE,165,0.0,3.6,26,0.00,,,0.00,VWS V13.01,2013-03-16 11:18:00,
2013-03-16 07:23:00,26.1,-4.1,0.00,WNW,288,3.1,4.0,26,0.00,,,0.00,VWS V13.01,2013-03-16 11:23:00,
2013-03-16 07:28:00,26.1,-4.1,0.00,SE,127,3.6,3.6,26,0.00,,,0.00,VWS V13.01,2013-03-16 11:28:00,
2013-03-16 07:33:00,26.1,-4.1,0.00,SE,137,2.2,2.2,26,0.00,,,0.00,VWS V13.01,2013-03-16 11:33:00,
2013-03-16 07:38:00,26.2,-4.0,0.00,ENE,76,0.0,5.8,26,0.00,,,0.00,VWS V13.01,2013-03-16 11:38:00,
2013-03-16 07:43:00,26.4,-3.8,0.00,WSW,248,2.2,3.1,26,0.00,,,0.00,VWS V13.01,2013-03-16 11:43:00,
2013-03-16 07:49:00,26.8,-3.5,0.00,NNW,332,3.6,6.3,26,0.00,,,0.00,VWS V13.01,2013-03-16 11:49:00,
2013-03-16 07:54:00,27.1,-3.2,0.00,SSE,151,0.0,2.2,26,0.00,,,0.00,VWS V13.01,2013-03-16 11:54:00,
2013-03-16 07:59:00,27.9,-5.1,0.00,East,86,2.7,3.6,23,0.00,,,0.00,VWS V13.01,2013-03-16 11:59:00,
2013-03-16 08:04:00,28.2,-4.8,0.00,NE,45,5.4,5.8,23,0.00,,,0.00,VWS V13.01,2013-03-16 12:04:00,
2013-03-16 08:09:00,28.0,-5.0,0.00,ENE,65,4.9,5.4,23,0.00,,,0.00,VWS V13.01,2013-03-16 12:09:00,
2013-03-16 08:14:00,28.2,-4.8,0.00,NE,49,5.8,5.8,23,0.00,,,0.00,VWS V13.01,2013-03-16 12:14:00,
2013-03-16 08:19:00,28.6,-4.5,0.00,North,6,5.4,5.8,23,0.00,,,0.00,VWS V13.01,2013-03-16 12:19:00,
2013-03-16 08:24:00,28.6,-4.5,0.00,NNE,20,3.1,3.1,23,0.00,,,0.00,VWS V13.01,2013-03-16 12:24:00,
2013-03-16 08:29:00,28.9,-4.2,0.00,North,5,3.1,5.8,23,0.00,,,0.00,VWS V13.01,2013-03-16 12:29:00,
2013-03-16 08:34:00,28.6,-4.5,0.00,East,90,5.4,5.4,23,0.00,,,0.00,VWS V13.01,2013-03-16 12:34:00,
2013-03-16 08:39:00,28.4,-4.7,0.00,North,0,2.7,5.8,23,0.00,,,0.00,VWS V13.01,2013-03-16 12:39:00,
2013-03-16 08:44:00,28.0,-5.0,0.00,NNE,17,5.8,6.3,23,0.00,,,0.00,VWS V13.01,2013-03-16 12:44:00,
2013-03-16 08:49:00,28.4,-4.7,0.00,NNE,15,3.1,3.1,23,0.00,,,0.00,VWS V13.01,2013-03-16 12:49:00,
2013-03-16 08:54:00,29.1,-4.1,0.00,SW,229,0.0,2.7,23,0.00,,,0.00,VWS V13.01,2013-03-16 12:54:00,
2013-03-16 08:59:00,29.5,-3.7,0.00,NNW,344,2.7,3.6,23,0.00,,,0.00,VWS V13.01,2013-03-16 12:59:00,
2013-03-16 09:04:00,29.8,-3.4,0.00,NNE,22,6.7,6.7,23,0.00,,,0.00,VWS V13.01,2013-03-16 13:04:00,
2013-03-16 09:09:00,29.7,-3.6,0.00,NNE,19,6.3,6.3,23,0.00,,,0.00,VWS V13.01,2013-03-16 13:09:00,
2013-03-16 09:14:00,29.8,-3.4,0.00,NE,56,2.2,5.8,23,0.00,,,0.00,VWS V13.01,2013-03-16 13:14:00,
2013-03-16 09:20:00,29.7,-3.6,0.00,North,8,4.0,5.4,23,0.00,,,0.00,VWS V13.01,2013-03-16 13:20:00,
2013-03-16 09:25:00,29.5,-6.6,0.00,NW,324,4.9,5.8,20,0.00,,,0.00,VWS V13.01,2013-03-16 13:25:00,
2013-03-16 09:30:00,29.3,-6.8,0.00,NE,56,7.6,8.3,20,0.00,,,0.00,VWS V13.01,2013-03-16 13:30:00,
2013-03-16 09:35:00,29.5,-6.6,0.00,NW,318,3.1,3.1,20,0.00,,,0.00,VWS V13.01,2013-03-16 13:35:00,
2013-03-16 09:40:00,29.5,-6.6,0.00,NNW,339,7.6,8.7,20,0.00,,,0.00,VWS V13.01,2013-03-16 13:40:00,
2013-03-16 09:45:00,29.5,-6.6,0.00,North,357,2.7,3.1,20,0.00,,,0.00,VWS V13.01,2013-03-16 13:45:00,
2013-03-16 09:50:00,29.5,-6.6,0.00,NE,39,5.4,6.3,20,0.00,,,0.00,VWS V13.01,2013-03-16 13:50:00,
2013-03-16 09:55:00,29.7,-6.5,0.00,North,11,0.0,4.9,20,0.00,,,0.00,VWS V13.01,2013-03-16 13:55:00,
2013-03-16 10:00:00,30.0,-6.2,0.00,NNW,338,2.7,5.4,20,0.00,,,0.00,VWS V13.01,2013-03-16 14:00:00,
2013-03-16 10:05:00,30.2,-6.0,0.00,NNE,31,3.1,3.6,20,0.00,,,0.00,VWS V13.01,2013-03-16 14:05:00,
2013-03-16 10:10:00,30.6,-5.7,0.00,WNW,297,5.8,5.8,20,0.00,,,0.00,VWS V13.01,2013-03-16 14:10:00,
2013-03-16 10:15:00,30.7,-5.6,0.00,WSW,252,4.5,4.5,20,0.00,,,0.00,VWS V13.01,2013-03-16 14:15:00,
2013-03-16 10:20:00,30.9,-5.4,0.00,ENE,65,2.7,5.8,20,0.00,,,0.00,VWS V13.01,2013-03-16 14:20:00,
2013-03-16 10:25:00,31.5,-5.0,0.00,SW,235,5.4,7.6,20,0.00,,,0.00,VWS V13.01,2013-03-16 14:25:00,
2013-03-16 10:30:00,31.5,-5.0,0.00,NNW,330,2.7,3.1,20,0.00,,,0.00,VWS V13.01,2013-03-16 14:30:00,
2013-03-16 10:35:00,31.5,-5.0,0.00,West,263,2.7,3.1,20,0.00,,,0.00,VWS V13.01,2013-03-16 14:35:00,
2013-03-16 10:41:00,31.1,-5.3,0.00,NNW,329,6.3,6.3,20,0.00,,,0.00,VWS V13.01,2013-03-16 14:41:00,
2013-03-16 10:46:00,31.3,-5.1,0.00,East,89,2.7,2.7,20,0.00,,,0.00,VWS V13.01,2013-03-16 14:46:00,
2013-03-16 10:51:00,32.2,-4.4,0.00,NE,37,4.0,4.9,20,0.00,,,0.00,VWS V13.01,2013-03-16 14:51:00,
2013-03-16 10:56:00,32.5,-4.1,0.00,West,280,5.4,5.4,20,0.00,,,0.00,VWS V13.01,2013-03-16 14:56:00,
2013-03-16 11:01:00,32.5,-4.1,0.00,ENE,63,0.0,3.6,20,0.00,,,0.00,VWS V13.01,2013-03-16 15:01:00,
2013-03-16 11:07:00,33.4,-3.3,0.00,ESE,119,3.6,3.6,20,0.00,,,0.00,VWS V13.01,2013-03-16 15:07:00,
2013-03-16 11:12:00,33.3,-3.5,0.00,WSW,239,2.7,2.7,20,0.00,,,0.00,VWS V13.01,2013-03-16 15:12:00,
2013-03-16 11:17:00,33.1,-3.6,0.00,WNW,294,5.8,5.8,20,0.00,,,0.00,VWS V13.01,2013-03-16 15:17:00,
2013-03-16 11:22:00,32.9,-3.8,0.00,SSW,201,4.0,4.0,20,0.00,,,0.00,VWS V13.01,2013-03-16 15:22:00,
2013-03-16 11:27:00,33.6,-3.2,0.00,South,175,4.0,4.0,20,0.00,,,0.00,VWS V13.01,2013-03-16 15:27:00,
2013-03-16 11:32:00,33.3,-3.5,0.00,West,268,6.3,6.3,20,0.00,,,0.00,VWS V13.01,2013-03-16 15:32:00,
2013-03-16 11:37:00,32.7,-3.9,0.00,SW,217,5.4,5.4,20,0.00,,,0.00,VWS V13.01,2013-03-16 15:37:00,
2013-03-16 11:42:00,32.9,-3.8,0.00,West,266,4.0,4.9,20,0.00,,,0.00,VWS V13.01,2013-03-16 15:42:00,
2013-03-16 11:47:00,33.8,-3.0,0.00,West,277,3.1,5.4,20,0.00,,,0.00,VWS V13.01,2013-03-16 15:47:00,
2013-03-16 11:52:00,34.3,-2.6,0.00,WSW,245,4.0,4.5,20,0.00,,,0.00,VWS V13.01,2013-03-16 15:52:00,
2013-03-16 11:57:00,34.5,-2.4,0.00,South,170,3.1,4.0,20,0.00,,,0.00,VWS V13.01,2013-03-16 15:57:00,
2013-03-16 12:02:00,35.6,-2.6,0.00,SSE,155,4.9,4.9,19,0.00,,,0.00,VWS V13.01,2013-03-16 16:02:00,
2013-03-16 12:07:00,36.7,-1.7,0.00,SW,230,3.6,3.6,19,0.00,,,0.00,VWS V13.01,2013-03-16 16:07:00,
2013-03-16 12:12:00,36.3,-2.0,0.00,West,266,6.3,7.6,19,0.00,,,0.00,VWS V13.01,2013-03-16 16:12:00,
2013-03-16 12:17:00,35.8,-2.4,0.00,SSW,198,4.0,4.0,19,0.00,,,0.00,VWS V13.01,2013-03-16 16:17:00,
2013-03-16 12:22:00,35.6,-2.6,0.00,SSW,202,0.0,2.7,19,0.00,,,0.00,VWS V13.01,2013-03-16 16:22:00,
2013-03-16 12:27:00,35.6,-2.6,0.00,SSW,194,5.4,5.4,19,0.00,,,0.00,VWS V13.01,2013-03-16 16:27:00,
2013-03-16 12:32:00,35.6,-2.6,0.00,SW,227,3.6,3.6,19,0.00,,,0.00,VWS V13.01,2013-03-16 16:32:00,
2013-03-16 12:37:00,36.3,-2.0,0.00,SW,233,2.7,3.1,19,0.00,,,0.00,VWS V13.01,2013-03-16 16:37:00,
2013-03-16 12:43:00,35.6,-2.6,0.00,West,268,5.8,5.8,19,0.00,,,0.00,VWS V13.01,2013-03-16 16:43:00,
2013-03-16 12:48:00,34.7,-2.3,0.00,West,274,2.7,4.9,20,0.00,,,0.00,VWS V13.01,2013-03-16 16:48:00,
2013-03-16 12:53:00,34.5,-2.4,0.00,WSW,257,4.0,4.9,20,0.00,,,0.00,VWS V13.01,2013-03-16 16:53:00,
2013-03-16 12:58:00,34.3,-2.6,0.00,West,264,2.7,2.7,20,0.00,,,0.00,VWS V13.01,2013-03-16 16:58:00,
2013-03-16 13:03:00,34.3,-2.6,0.00,West,274,2.7,2.7,20,0.00,,,0.00,VWS V13.01,2013-03-16 17:03:00,
2013-03-16 13:08:00,34.7,-2.3,0.00,SE,145,2.7,2.7,20,0.00,,,0.00,VWS V13.01,2013-03-16 17:08:00,
2013-03-16 13:13:00,34.9,-2.1,0.00,ENE,74,0.0,0.0,20,0.00,,,0.00,VWS V13.01,2013-03-16 17:13:00,
2013-03-16 13:18:00,35.2,-1.8,0.00,NW,325,2.2,2.2,20,0.00,,,0.00,VWS V13.01,2013-03-16 17:18:00,
2013-03-16 13:23:00,35.2,-1.8,0.00,NNW,332,2.2,2.7,20,0.00,,,0.00,VWS V13.01,2013-03-16 17:23:00,
2013-03-16 13:28:00,35.2,-1.8,0.00,SSW,198,0.0,0.0,20,0.00,,,0.00,VWS V13.01,2013-03-16 17:28:00,
2013-03-16 13:33:00,35.2,-1.8,0.00,ESE,105,3.1,3.1,20,0.00,,,0.00,VWS V13.01,2013-03-16 17:33:00,
2013-03-16 13:38:00,35.2,-1.8,0.00,East,101,0.0,0.0,20,0.00,,,0.00,VWS V13.01,2013-03-16 17:38:00,
2013-03-16 13:43:00,35.4,-1.6,0.00,NNE,26,3.6,3.6,20,0.00,,,0.00,VWS V13.01,2013-03-16 17:43:00,
2013-03-16 13:48:00,35.6,-2.6,0.00,East,100,0.0,0.0,19,0.00,,,0.00,VWS V13.01,2013-03-16 17:48:00,
2013-03-16 13:53:00,35.8,-2.4,0.00,West,263,3.1,3.6,19,0.00,,,0.00,VWS V13.01,2013-03-16 17:53:00,
2013-03-16 13:58:00,35.6,-2.6,0.00,SSW,194,3.6,3.6,19,0.00,,,0.00,VWS V13.01,2013-03-16 17:58:00,
2013-03-16 14:03:00,35.4,-1.6,0.00,SE,133,4.0,5.4,20,0.00,,,0.00,VWS V13.01,2013-03-16 18:03:00,
2013-03-16 14:08:00,34.9,-2.1,0.00,NE,36,4.0,4.0,20,0.00,,,0.00,VWS V13.01,2013-03-16 18:08:00,
2013-03-16 14:13:00,34.9,-2.1,0.00,SSE,154,4.5,4.5,20,0.00,,,0.00,VWS V13.01,2013-03-16 18:13:00,
2013-03-16 14:18:00,34.9,-2.1,0.00,SE,138,0.0,0.0,20,0.00,,,0.00,VWS V13.01,2013-03-16 18:18:00,
2013-03-16 14:23:00,35.1,-2.0,0.00,SE,145,3.6,4.0,20,0.00,,,0.00,VWS V13.01,2013-03-16 18:23:00,
2013-03-16 14:29:00,35.1,-2.0,0.00,SSW,210,5.4,5.4,20,0.00,,,0.00,VWS V13.01,2013-03-16 18:29:00,
2013-03-16 14:34:00,34.9,-2.1,0.00,West,278,3.1,3.6,20,0.00,,,0.00,VWS V13.01,2013-03-16 18:34:00,
2013-03-16 14:39:00,34.7,-2.3,0.00,WSW,241,4.0,4.0,20,0.00,,,0.00,VWS V13.01,2013-03-16 18:39:00,
2013-03-16 14:44:00,34.7,-2.3,0.00,SE,130,2.7,3.1,20,0.00,,,0.00,VWS V13.01,2013-03-16 18:44:00,
2013-03-16 14:49:00,35.1,-2.0,0.00,South,170,3.1,4.0,20,0.00,,,0.00,VWS V13.01,2013-03-16 18:49:00,
2013-03-16 14:54:00,34.9,-2.1,0.00,West,259,4.9,5.8,20,0.00,,,0.00,VWS V13.01,2013-03-16 18:54:00,
2013-03-16 14:59:00,34.9,-2.1,0.00,East,91,3.1,3.6,20,0.00,,,0.00,VWS V13.01,2013-03-16 18:59:00,
2013-03-16 15:04:00,35.1,-2.0,0.00,South,180,0.0,0.0,20,0.00,,,0.00,VWS V13.01,2013-03-16 19:04:00,
2013-03-16 15:09:00,35.6,0.5,0.00,WSW,257,3.6,6.3,22,0.00,,,0.00,VWS V13.01,2013-03-16 19:09:00,
2013-03-16 15:14:00,35.2,-1.8,0.00,WSW,250,2.2,3.6,20,0.00,,,0.00,VWS V13.01,2013-03-16 19:14:00,
2013-03-16 15:19:00,35.2,-1.8,0.00,West,275,0.0,3.1,20,0.00,,,0.00,VWS V13.01,2013-03-16 19:19:00,
2013-03-16 15:24:00,35.6,-2.6,0.00,NW,321,0.0,4.0,19,0.00,,,0.00,VWS V13.01,2013-03-16 19:24:00,
2013-03-16 15:29:00,35.6,-2.6,0.00,ESE,119,3.6,4.9,19,0.00,,,0.00,VWS V13.01,2013-03-16 19:29:00,
2013-03-16 15:34:00,35.1,-2.0,0.00,ESE,115,2.2,2.7,20,0.00,,,0.00,VWS V13.01,2013-03-16 19:34:00,
2013-03-16 15:40:00,35.2,-1.8,0.00,ESE,123,3.6,5.4,20,0.00,,,0.00,VWS V13.01,2013-03-16 19:40:00,
2013-03-16 15:45:00,35.1,-2.0,0.00,East,99,3.6,3.6,20,0.00,,,0.00,VWS V13.01,2013-03-16 19:45:00,
2013-03-16 15:50:00,34.9,-2.1,0.00,NE,35,2.7,2.7,20,0.00,,,0.00,VWS V13.01,2013-03-16 19:50:00,
2013-03-16 15:55:00,34.9,-2.1,0.00,East,98,2.7,3.1,20,0.00,,,0.00,VWS V13.01,2013-03-16 19:55:00,
2013-03-16 16:00:00,35.4,-1.6,0.00,SSW,197,3.1,3.1,20,0.00,,,0.00,VWS V13.01,2013-03-16 20:00:00,
2013-03-16 16:05:00,35.2,-1.8,0.00,West,260,0.0,2.2,20,0.00,,,0.00,VWS V13.01,2013-03-16 20:05:00,
2013-03-16 16:10:00,35.1,0.1,0.00,West,260,2.2,2.7,22,0.00,,,0.00,VWS V13.01,2013-03-16 20:10:00,
2013-03-16 16:15:00,35.1,-2.0,0.00,NW,315,0.0,0.0,20,0.00,,,0.00,VWS V13.01,2013-03-16 20:15:00,
2013-03-16 16:20:00,35.2,0.2,0.00,ESE,121,0.0,0.0,22,0.00,,,0.00,VWS V13.01,2013-03-16 20:20:00,
2013-03-16 16:25:00,35.6,0.5,0.00,ENE,71,0.0,0.0,22,0.00,,,0.00,VWS V13.01,2013-03-16 20:25:00,
2013-03-16 16:30:00,35.8,0.7,0.00,WSW,253,0.0,3.1,22,0.00,,,0.00,VWS V13.01,2013-03-16 20:30:00,
2013-03-16 16:35:00,35.8,0.7,0.00,SE,136,0.0,0.0,22,0.00,,,0.00,VWS V13.01,2013-03-16 20:35:00,
2013-03-16 16:40:00,36.0,0.8,0.00,South,172,0.0,0.0,22,0.00,,,0.00,VWS V13.01,2013-03-16 20:40:00,
2013-03-16 16:46:00,36.0,0.8,0.00,SSW,202,3.6,3.6,22,0.00,,,0.00,VWS V13.01,2013-03-16 20:46:00,
2013-03-16 16:51:00,35.6,-2.6,0.00,WSW,253,4.9,4.9,19,0.00,,,0.00,VWS V13.01,2013-03-16 20:51:00,
2013-03-16 16:56:00,35.1,-2.0,0.00,WSW,257,2.7,2.7,20,0.00,,,0.00,VWS V13.01,2013-03-16 20:56:00,
2013-03-16 17:01:00,34.7,-0.2,0.00,SE,136,0.0,3.1,22,0.00,,,0.00,VWS V13.01,2013-03-16 21:01:00,
2013-03-16 17:06:00,34.9,-0.1,0.00,SE,136,0.0,0.0,22,0.00,,,0.00,VWS V13.01,2013-03-16 21:06:00,
2013-03-16 17:11:00,34.9,-0.1,0.00,SE,136,0.0,0.0,22,0.00,,,0.00,VWS V13.01,2013-03-16 21:11:00,
2013-03-16 17:16:00,35.1,0.1,0.00,SE,136,0.0,0.0,22,0.00,,,0.00,VWS V13.01,2013-03-16 21:16:00,
2013-03-16 17:21:00,35.1,0.1,0.00,SE,136,0.0,0.0,22,0.00,,,0.00,VWS V13.01,2013-03-16 21:21:00,
2013-03-16 17:27:00,35.1,0.1,0.00,NNE,21,0.0,0.0,22,0.00,,,0.00,VWS V13.01,2013-03-16 21:27:00,
2013-03-16 17:32:00,35.2,0.2,0.00,NNE,15,0.0,0.0,22,0.00,,,0.00,VWS V13.01,2013-03-16 21:32:00,
2013-03-16 17:37:00,35.1,0.1,0.00,SSW,198,2.2,2.2,22,0.00,,,0.00,VWS V13.01,2013-03-16 21:37:00,
2013-03-16 17:42:00,35.1,0.1,0.00,WSW,243,0.0,0.0,22,0.00,,,0.00,VWS V13.01,2013-03-16 21:42:00,
2013-03-16 17:47:00,34.9,-0.1,0.00,West,263,4.0,4.0,22,0.00,,,0.00,VWS V13.01,2013-03-16 21:47:00,
2013-03-16 17:52:00,34.7,-0.2,0.00,WSW,255,5.4,5.4,22,0.00,,,0.00,VWS V13.01,2013-03-16 21:52:00,
2013-03-16 17:57:00,34.3,-0.6,0.00,WNW,284,3.6,4.0,22,0.00,,,0.00,VWS V13.01,2013-03-16 21:57:00,
2013-03-16 18:02:00,34.3,-0.6,0.00,WNW,292,5.4,5.4,22,0.00,,,0.00,VWS V13.01,2013-03-16 22:02:00,
2013-03-16 18:07:00,34.2,-0.7,0.00,West,268,0.0,2.7,22,0.00,,,0.00,VWS V13.01,2013-03-16 22:07:00,
2013-03-16 18:12:00,34.2,-0.7,0.00,West,263,4.0,4.0,22,0.00,,,0.00,VWS V13.01,2013-03-16 22:12:00,
2013-03-16 18:17:00,34.0,-0.9,0.00,WSW,258,2.2,3.6,22,0.00,,,0.00,VWS V13.01,2013-03-16 22:17:00,
2013-03-16 18:22:00,33.8,1.7,0.00,West,271,3.1,3.1,25,0.00,,,0.00,VWS V13.01,2013-03-16 22:22:00,
2013-03-16 18:27:00,33.6,4.0,0.00,West,260,3.1,3.6,28,0.00,,,0.00,VWS V13.01,2013-03-16 22:27:00,
2013-03-16 18:32:00,33.4,5.3,0.00,WSW,247,3.6,3.6,30,0.00,,,0.00,VWS V13.01,2013-03-16 22:32:00,
2013-03-16 18:37:00,33.3,5.2,0.00,WSW,258,3.1,3.1,30,0.00,,,0.00,VWS V13.01,2013-03-16 22:37:00,
2013-03-16 18:42:00,33.1,5.0,0.00,NW,305,4.0,4.0,30,0.00,,,0.00,VWS V13.01,2013-03-16 22:42:00,
2013-03-16 18:47:00,33.1,5.8,0.00,WSW,254,2.7,5.4,31,0.00,,,0.00,VWS V13.01,2013-03-16 22:47:00,
2013-03-16 18:53:00,33.1,5.8,0.00,West,259,4.9,5.4,31,0.00,,,0.00,VWS V13.01,2013-03-16 22:53:00,
2013-03-16 18:58:00,32.9,5.6,0.00,West,270,2.7,2.7,31,0.00,,,0.00,VWS V13.01,2013-03-16 22:58:00,
2013-03-16 19:03:00,32.7,5.4,0.00,WSW,253,4.0,5.4,31,0.00,,,0.00,VWS V13.01,2013-03-16 23:03:00,
2013-03-16 19:08:00,32.7,5.4,0.00,WSW,257,5.4,5.4,31,0.00,,,0.00,VWS V13.01,2013-03-16 23:08:00,
2013-03-16 19:13:00,32.5,6.0,0.00,WSW,256,3.6,3.6,32,0.00,,,0.00,VWS V13.01,2013-03-16 23:13:00,
2013-03-16 19:18:00,32.4,7.1,0.00,WSW,252,4.0,4.9,34,0.00,,,0.00,VWS V13.01,2013-03-16 23:18:00,
2013-03-16 19:23:00,32.2,7.0,0.00,WSW,248,3.1,3.1,34,0.00,,,0.00,VWS V13.01,2013-03-16 23:23:00,
2013-03-16 19:28:00,32.0,7.5,0.00,West,263,0.0,0.0,35,0.00,,,0.00,VWS V13.01,2013-03-16 23:28:00,
2013-03-16 19:33:00,31.8,7.9,0.00,West,263,2.2,3.1,36,0.00,,,0.00,VWS V13.01,2013-03-16 23:33:00,
2013-03-16 19:38:00,31.8,7.9,0.00,West,263,0.0,0.0,36,0.00,,,0.00,VWS V13.01,2013-03-16 23:38:00,
2013-03-16 19:43:00,31.6,7.8,0.00,West,263,3.6,3.6,36,0.00,,,0.00,VWS V13.01,2013-03-16 23:43:00,
2013-03-16 19:48:00,31.6,8.4,0.00,West,263,2.2,3.1,37,0.00,,,0.00,VWS V13.01,2013-03-16 23:48:00,
2013-03-16 19:53:00,31.5,8.2,0.00,West,263,0.0,0.0,37,0.00,,,0.00,VWS V13.01,2013-03-16 23:53:00,
2013-03-16 19:58:00,31.5,8.8,0.00,West,263,0.0,2.2,38,0.00,,,0.00,VWS V13.01,2013-03-16 23:58:00,
2013-03-16 20:03:00,31.3,9.2,0.00,West,263,0.0,0.0,39,0.00,,,0.00,VWS V13.01,2013-03-17 00:03:00,
2013-03-16 20:08:00,31.3,9.8,0.00,West,263,2.7,3.6,40,0.00,,,0.00,VWS V13.01,2013-03-17 00:08:00,
2013-03-16 20:13:00,31.1,10.2,0.00,West,263,2.2,2.7,41,0.00,,,0.00,VWS V13.01,2013-03-17 00:13:00,
2013-03-16 20:18:00,31.1,10.2,0.00,West,263,0.0,0.0,41,0.00,,,0.00,VWS V13.01,2013-03-17 00:18:00,
2013-03-16 20:24:00,31.3,10.9,0.00,WSW,245,2.7,3.1,42,0.00,,,0.00,VWS V13.01,2013-03-17 00:24:00,
2013-03-16 20:29:00,31.3,10.9,0.00,WSW,248,2.2,2.7,42,0.00,,,0.00,VWS V13.01,2013-03-17 00:29:00,
2013-03-16 20:34:00,31.3,11.4,0.00,WSW,250,4.0,4.0,43,0.00,,,0.00,VWS V13.01,2013-03-17 00:34:00,
2013-03-16 20:39:00,31.3,11.9,0.00,WSW,250,3.1,3.1,44,0.00,,,0.00,VWS V13.01,2013-03-17 00:39:00,
2013-03-16 20:44:00,31.3,11.9,0.00,WNW,290,0.0,0.0,44,0.00,,,0.00,VWS V13.01,2013-03-17 00:44:00,
2013-03-16 20:49:00,31.3,11.9,0.00,WNW,290,0.0,0.0,44,0.00,,,0.00,VWS V13.01,2013-03-17 00:49:00,
2013-03-16 20:54:00,31.3,12.4,0.00,WNW,290,0.0,0.0,45,0.00,,,0.00,VWS V13.01,2013-03-17 00:54:00,
2013-03-16 20:59:00,31.3,12.4,0.00,WNW,290,0.0,0.0,45,0.00,,,0.00,VWS V13.01,2013-03-17 00:59:00,
2013-03-16 21:04:00,31.3,12.4,0.00,WNW,290,0.0,0.0,45,0.00,,,0.00,VWS V13.01,2013-03-17 01:04:00,
2013-03-16 21:09:00,31.3,12.9,0.00,WNW,290,0.0,0.0,46,0.00,,,0.00,VWS V13.01,2013-03-17 01:09:00,
2013-03-16 21:14:00,31.1,12.2,0.00,WNW,290,0.0,0.0,45,0.00,,,0.00,VWS V13.01,2013-03-17 01:14:00,
2013-03-16 21:19:00,31.1,12.8,0.00,WNW,290,0.0,0.0,46,0.00,,,0.00,VWS V13.01,2013-03-17 01:19:00,
2013-03-16 21:24:00,31.1,13.2,0.00,WNW,290,0.0,0.0,47,0.00,,,0.00,VWS V13.01,2013-03-17 01:24:00,
2013-03-16 21:29:00,31.1,13.2,0.00,WNW,290,0.0,0.0,47,0.00,,,0.00,VWS V13.01,2013-03-17 01:29:00,
2013-03-16 21:34:00,31.1,13.7,0.00,WNW,290,0.0,0.0,48,0.00,,,0.00,VWS V13.01,2013-03-17 01:34:00,
2013-03-16 21:39:00,31.1,13.7,0.00,WNW,290,0.0,0.0,48,0.00,,,0.00,VWS V13.01,2013-03-17 01:39:00,
2013-03-16 21:44:00,31.1,13.7,0.00,WNW,290,0.0,0.0,48,0.00,,,0.00,VWS V13.01,2013-03-17 01:44:00,
2013-03-16 21:49:00,31.1,13.7,0.00,WNW,290,2.7,2.7,48,0.00,,,0.00,VWS V13.01,2013-03-17 01:49:00,
2013-03-16 21:54:00,31.1,13.7,0.00,WNW,290,0.0,0.0,48,0.00,,,0.00,VWS V13.01,2013-03-17 01:54:00,
2013-03-16 22:00:00,31.3,14.8,0.00,WNW,290,0.0,0.0,50,0.00,,,0.00,VWS V13.01,2013-03-17 02:00:00,
2013-03-16 22:05:00,31.3,14.8,0.00,WNW,290,0.0,0.0,50,0.00,,,0.00,VWS V13.01,2013-03-17 02:05:00,
2013-03-16 22:10:00,31.3,14.8,0.00,WNW,290,0.0,0.0,50,0.00,,,0.00,VWS V13.01,2013-03-17 02:10:00,
2013-03-16 22:15:00,31.3,14.8,0.00,WNW,290,0.0,0.0,50,0.00,,,0.00,VWS V13.01,2013-03-17 02:15:00,
2013-03-16 22:20:00,31.1,14.6,0.00,WNW,290,0.0,0.0,50,0.00,,,0.00,VWS V13.01,2013-03-17 02:20:00,
2013-03-16 22:25:00,31.1,14.6,0.00,WNW,290,0.0,0.0,50,0.00,,,0.00,VWS V13.01,2013-03-17 02:25:00,
2013-03-16 22:30:00,31.1,14.6,0.00,NNW,343,0.0,0.0,50,0.00,,,0.00,VWS V13.01,2013-03-17 02:30:00,
2013-03-16 22:35:00,31.1,14.6,0.00,West,281,2.2,2.2,50,0.00,,,0.00,VWS V13.01,2013-03-17 02:35:00,
2013-03-16 22:40:00,31.1,15.1,0.00,NNW,331,3.6,4.9,51,0.00,,,0.00,VWS V13.01,2013-03-17 02:40:00,
2013-03-16 22:45:00,31.1,15.1,0.00,North,10,0.0,0.0,51,0.00,,,0.00,VWS V13.01,2013-03-17 02:45:00,
2013-03-16 22:50:00,30.9,14.9,0.00,NNW,333,0.0,0.0,51,0.00,,,0.00,VWS V13.01,2013-03-17 02:50:00,
2013-03-16 22:55:00,30.9,14.5,0.00,NNW,333,0.0,0.0,50,0.00,,,0.00,VWS V13.01,2013-03-17 02:55:00,
2013-03-16 23:00:00,30.7,14.3,0.00,NNW,333,0.0,0.0,50,0.00,,,0.00,VWS V13.01,2013-03-17 03:00:00,
2013-03-16 23:05:00,30.6,14.1,0.00,NNW,333,0.0,0.0,50,0.00,,,0.00,VWS V13.01,2013-03-17 03:05:00,
2013-03-16 23:10:00,30.4,14.0,0.00,North,10,3.6,3.6,50,0.00,,,0.00,VWS V13.01,2013-03-17 03:10:00,
2013-03-16 23:15:00,30.4,13.5,0.00,NE,45,0.0,0.0,49,0.00,,,0.00,VWS V13.01,2013-03-17 03:15:00,
2013-03-16 23:20:00,30.4,12.6,0.00,NE,45,0.0,0.0,47,0.00,,,0.00,VWS V13.01,2013-03-17 03:20:00,
2013-03-16 23:25:00,30.2,11.9,0.00,NE,45,0.0,0.0,46,0.00,,,0.00,VWS V13.01,2013-03-17 03:25:00,
2013-03-16 23:30:00,29.8,11.1,0.00,NE,45,0.0,0.0,45,0.00,,,0.00,VWS V13.01,2013-03-17 03:30:00,
2013-03-16 23:35:00,29.5,10.8,0.00,NE,45,0.0,0.0,45,0.00,,,0.00,VWS V13.01,2013-03-17 03:35:00,
2013-03-16 23:40:00,29.3,10.1,0.00,NE,45,0.0,0.0,44,0.00,,,0.00,VWS V13.01,2013-03-17 03:40:00,
2013-03-16 23:45:00,28.9,9.8,0.00,NE,45,0.0,0.0,44,0.00,,,0.00,VWS V13.01,2013-03-17 03:45:00,
2013-03-16 23:50:00,28.6,8.9,0.00,NNE,27,0.0,0.0,43,0.00,,,0.00,VWS V13.01,2013-03-17 03:50:00,
2013-03-16 23:55:00,28.8,8.6,0.00,NNE,23,0.0,0.0,42,0.00,,,0.00,VWS V13.01,2013-03-17 03:55:00,